Regional Weather Roundup
Issued by NWS Pendleton, OR

Home | Current Version | Previous Version | Text Only | Print | Product List | Glossary On
Versions: 1 2 3 4 5 6 7 8 9 10 11 12 13 14 15 16 17 18 19 20 21 22 23 24 25 26 27 28 29 30 31 32 33 34 35 36 37 38 39 40 41 42 43 44 45 46 47 48 49 50
000
ASUS46 KPDT 251825
RWRPDT
PENDLETON REGIONAL WEATHER ROUNDUP
NATIONAL WEATHER SERVICE PENDLETON OREGON
1100 AM PDT MON MAY 25 2015

NOTE: FAIR INDICATES FEW OR NO CLOUDS BELOW 12,000 FEET WITH NO
SIGNIFICANT WEATHER AND/OR OBSTRUCTIONS TO VISIBILITY.

# INDICATES UNOFFICIAL STATION AND DATA

WAZ520-251910-
EAST SLOPES OF WASHINGTON CASCADES

CITY            SKY/WX      TMP DP  RH  WIND    PRES   REMARKS
#BULLFROG 2SW   N/A         61  44  53  N5      27.53F
#BUMPING DAM    N/A         58  N/A N/A S1      N/A
#CLE ELUM HS    N/A         60  44  55  NW7     29.88S
#CLE ELUM LAKE  N/A         61  46  58  N1      29.85R
#CLIFFDEL 2NW   N/A         57  41  55  NW5     N/A
#GLENWOOD       N/A         66  53  63  S6      29.86F
#MANASTASH CYN  N/A         61  42  50  N2      29.90R
#NELSON         N/A         63  47  56  CALM    29.88S
#NELSON 3SW     N/A         61  45  56  NE1     30.06S
#NILE           N/A         64  43  46  W7      29.14R
#RONALD 2NW     N/A         61  45  56  W3      29.80S
#SNOWDEN        N/A         57  35  43  CALM    N/A
#TEANAWAY 4NE   N/A         62  50  65  SW3     N/A
#TROUT LAKE 1NE N/A         65  48  54  W9      29.85F
$$

WAZ521-251910-
SIMCOE HIGHLANDS

CITY            SKY/WX      TMP DP  RH  WIND    PRES   REMARKS
#CENTERVILLE 4W N/A         63  48  58  W10     29.68S
#CENTERVILLE 1SWN/A         63  47  56  W5      29.86F
#GOLDENDALE     N/A         62  47  58  N2      N/A
#GOLDENDALE 1NE N/A         64  35  34  S1      N/A
#GOLDENDALE 5WNWN/A         64  48  56  W6      29.86F
#GOODNOE HILLS  N/A         68  48  49  NW12    N/A
#LYLE 6NE       N/A         59  48  67  SW8     29.88F
$$

WAZ026-251910-
KITTITAS VALLEY

CITY            SKY/WX      TMP DP  RH  WIND    PRES   REMARKS
ELLENSBURG AP   SUNNY       71  41  34  W8      29.90S
6HR MIN TEMP:   53; 6HR MAX TEMP:   71;

#ELLENSBURG CWU N/A         69  44  40  NW7     29.80F
#ELLENSBURG 3NE N/A         65  45  48  N2      29.91S
#ELLENSBURG 1E  N/A         67  44  43  CALM    N/A
#KITTITAS 4N    N/A         69  48  47  NW1     28.22S
#KITTITAS 3S    N/A         67  47  49  CALM    29.84S
#THORP 6N       N/A         60  46  60  W14     29.88S
$$

WAZ027-251910-
YAKIMA VALLEY

CITY            SKY/WX      TMP DP  RH  WIND    PRES   REMARKS
SUNNYSIDE AP    SUNNY       69  45  42  E7      29.88F
YAKIMA AIRPORT  SUNNY       72  39  30  VRB3    29.89F
6HR MIN TEMP:   60; 6HR MAX TEMP:   73;

#DONALD 2NE     N/A         78  14   9  SE1     28.73F
#GRANDVIEW      N/A         70  44  39  SW2     29.87F
#MABTON         N/A         70  45  41  SW2     29.87F
#NACHES 2SW     N/A         70  45  41  E1      29.91S
#OUTLOOK DOT    N/A         N/A N/A N/A CALM    N/A
#SELAH 8E       N/A         71  41  34  S5      N/A
#TERRACE HTS    N/A         70  44  39  SW2     29.80F
#TOPPENISH      N/A         70  43  38  CALM    29.77F
#WEST VALLEY    N/A         68  42  39  NE1     29.83F
#WHITE SWAN 5E  N/A         71  50  47  NE2     29.85F
#WILEY CITY 3W  N/A         70  38  31  N1      29.86S
$$

WAZ028-251910-
LOWER COLUMBIA BASIN...WASHINGTON

CITY            SKY/WX      TMP DP  RH  WIND    PRES   REMARKS
PASCO           PTCLDY      70  44  39  VRB6    29.90S
6HR MIN TEMP:   59; 6HR MAX TEMP:   70;

#BASIN CITY 5SW N/A         72  54  53  E2      29.88S
#BENTON CITY    N/A         70  48  46  SE1     29.77F
#CONNELL 5N     N/A         69  50  51  SW6     29.84F
#CONNELL 5NW    N/A         68  51  55  SW3     29.81S
#ELTOPIA 6NW    N/A         66  49  54  SW6     28.86F
#KAHLOTUS       N/A         67  48  50  W13     29.85S
#KENNEWICK      N/A         61  44  53  N5      27.53F
#KENNEWICK 3S   N/A         69  50  51  N2      29.88S
#PASCO-BROADMOORN/A         75  50  41  SE1     29.77F
#PATERSON       N/A         66  50  56  SW7     29.88S
#PROSSER        N/A         69  42  37  S7      29.86S
#SAGEMOOR 2W    N/A         68  52  57  S3      29.72S
#TOUCHET 2S     N/A         63  53  70  SW7     29.87S
#WEST PASCO     N/A         73  52  48  SW1     29.87S
$$

WAZ029-251910-
FOOTHILLS OF THE BLUES...WASHINGTON

CITY            SKY/WX      TMP DP  RH  WIND    PRES   REMARKS
WALLA WALLA AP  CLOUDY      64  45  50  SW12    29.92S
6HR MIN TEMP:   57; 6HR MAX TEMP:   64;

#DAYTON SCHOOL  N/A         61  42  50  N5      29.93S
#LOWDEN 2SE     N/A         66  51  58  W7      29.88S
#PRESCOTT       N/A         64  51  63  S3      29.87S
#SUDBURY        N/A         67  N/A N/A CALM    N/A
#WHITMAN COLLEGEN/A         62  47  58  S5      29.94S
#WAITSBURG 8N   N/A         61  26  26  S10     29.76R
#WALLA WALLA U  N/A         64  48  56  CALM    29.89S
#WHITMAN MISSIONN/A         65  50  58  S5      29.91R
$$

WAZ030-251910-
BLUE MOUNTAINS...WASHINGTON

CITY            SKY/WX      TMP DP  RH  WIND    PRES   REMARKS
#DIXIE 5SE      N/A         54  42  64  SW7     29.88S
$$

ORZ009-041-WAZ024-251910-
COLUMBIA RIVER GORGE

CITY            SKY/WX      TMP DP  RH  WIND    PRES   REMARKS
HOOD RIVER AP   SUNNY       63  46  54  W10     29.96S
THE DALLES AP   SUNNY       68  46  45  N18G25  29.92S
6HR MIN TEMP:   58; 6HR MAX TEMP:   68;

#ARLINGTON AIRPON/A         65  47  52  NW10    29.82S
#CELILO DOT     N/A         71  49  46  SW5     N/A
#MURDOCK        N/A         66  49  54  W12G26  29.93S

$$

ORZ510-251910-
NORTH CENTRAL OREGON

CITY            SKY/WX      TMP DP  RH  WIND    PRES   REMARKS
#CHENOWITH 1W   N/A         58  44  60  W26     N/A
#COW CYN RST AREN/A         58  41  53  SW12    N/A
#DUFUR 9E       N/A         58  45  62  NW12    29.96S
#GRASS VALLEY 1SN/A         63  46  54  NW8     29.92F
#KENT DOT       N/A         62  36  38  W8      N/A
#MAUPIN SCHOOL  N/A         69  45  42  S5      29.93F
#MORO SCHOOL    N/A         62  51  67  W10     29.95F
#SHANIKO 5WSW   N/A         58  32  37  SW9     N/A
#SHANIKO 4NW    N/A         58  38  47  W5      29.97S
#TYGH VALLEY 2NEN/A         68  48  49  E1      29.88F
#WAPANITIA AIRPON/A         66  43  43  CALM    29.90F
#WASCO DOT      N/A         66  44  45  W7      N/A
#WASCO AIRPORT  N/A         65  43  45  W6      N/A
#WASCO 5NE      N/A         64  47  54  S2      29.89F
$$

ORZ511-251910-
CENTRAL OREGON

CITY            SKY/WX      TMP DP  RH  WIND    PRES   REMARKS
BEND AIRPORT    MOCLDY      59  30  33  NW6     29.98F
MADRAS AIRPORT  PTCLDY      61  39  44  CALM    29.99S
PRINEVILLE AP   MOCLDY      61  36  39  VRB6    29.97F
REDMOND AIRPORT MOCLDY      60  38  44  VRB5    29.97F
6HR MIN TEMP:   40; 6HR MAX TEMP:   60;

#BEND 1SW       N/A         61  36  39  S3      N/A
#BEND-KIM LN    N/A         62  42  48  W1      29.96S
#CROOKED RVR RANN/A         66  43  43  W1      29.89F
#CULVER         N/A         63  40  43  N1      29.93F
#LAKE BILLY CHINN/A         61  -1   8  N7      30.02F
#POWELL BUTTE 3EN/A         56  43  62  NW2     N/A
#POWELL BUTTE   N/A         65  44  46  N2      29.60F
#PRINEVILLE 3N  N/A         63  43  48  S2      29.86F
#WARM SPRINGS   N/A         68  45  44  N5      29.92F

$$


ORZ509-251910-
EAST SLOPES OF OREGON CASCADES

CITY            SKY/WX      TMP DP  RH  WIND    PRES   REMARKS
#BLUE BOX PASS  N/A         51  -2  11  W1      N/A
#CAMP SHERMAN   N/A         68  41  37  CALM    29.87F
#LA PINE 4NW    N/A         60  35  39  CALM    29.93S
#SISTERS AIRPOR N/A         61  43  51  N1      30.17S
#SISTERS ODOT   N/A         61  N/A N/A NW2     N/A
#SISTERS 1NW    N/A         61  N/A N/A N8      N/A
#SISTERS 3N     N/A         62  40  44  NE8     29.99S
#SUNRIVER       N/A         60  37  42  W1      29.78F
#TUMALO 3W      N/A         60  36  41  NE2     29.77F

$$

ORZ044-251910-
LOWER COLUMBIA BASIN...OREGON

CITY            SKY/WX      TMP DP  RH  WIND    PRES   REMARKS
HERMISTON       PTCLDY      67  47  49  W6      29.91F
6HR MIN TEMP:   56; 6HR MAX TEMP:   67;

#BOARDMAN SCHOOLN/A         70  47  44  SW3     29.91F
#ECHO 8SW       N/A         67  47  49  SW5     29.91F
#IONE SCHOOL    N/A         65  45  48  W7      29.89F
#IRRIGON 4NW    N/A         69  49  49  S9      N/A
#UMATILLA SCHOOLN/A         70  56  61  W7      29.94F
#UMATILLA       N/A         69  48  47  CALM    29.82F
$$

ORZ507-251910-
NORTHERN FOOTHILLS OF THE BLUES

CITY            SKY/WX      TMP DP  RH  WIND    PRES   REMARKS
PENDLETON AIRPT CLOUDY      63  45  52  W8      29.92F
6HR MIN TEMP:   52; 6HR MAX TEMP:   63;

#ADAMS 3WNW     N/A         60  49  67  W5      29.89F
#ATHENA         N/A         60  47  62  S2      29.91S
#CAYUSE         N/A         60  46  60  W3      29.88F
#HELIX SCHOOL   N/A         60  47  62  W7      29.88S
#HELIX 3N       N/A         60  46  60  SW10    29.90F
#HOLDMAN 6E     N/A         60  46  60  NE8     29.70S
#M-F FERNDALE   N/A         66  49  54  CALM    29.91F
#M-F GROVE ELEM N/A         63  44  50  S7      29.91S
#M-FREEWATER 5SEN/A         62  47  58  W7      29.92F
#PENDLETON DNTN N/A         67  45  45  NW3     29.90F
#PDT AQUATIC CTRN/A         65  47  52  SW7     29.92S
#PENDLETON 5NE  N/A         63  49  60  CALM    29.89F
#PDT SUNRIDGE   N/A         65  47  52  W1      29.93F
#PENDLETON 7NW  N/A         63  49  60  W8      29.86F
#PILOT ROCK     N/A         63  44  50  SW2     29.94F
#TUTUILLA       N/A         62  47  58  N1      29.91F
#UMAPINE 2E     N/A         65  51  60  SW5     29.88F
#WESTON SCHOOL  N/A         58  43  57  N3      29.90S

$$

ORZ508-251910-
SOUTHERN FOOTHILLS OF THE BLUES

CITY            SKY/WX      TMP DP  RH  WIND    PRES   REMARKS
#AJAX           N/A         62  39  43  S7      29.88F
#CONDON 5W      N/A         56  40  55  W8      29.93S
#FOSSIL SCHOOL  N/A         60  42  51  W2      29.93S
#HEPPNER EOC    N/A         61  43  51  W6      29.81F
#HEPPNER 4NE    N/A         59  43  55  W8      29.87F
#LEXINGTON 2SE  N/A         66  47  50  W6      29.90F
#RUGGS 5NE      N/A         60  41  49  W7      30.11F
#RUGGS 2SW      N/A         61  42  50  NW5     29.89F

$$

ORZ502-503-251910-
BLUE MOUNTAINS

CITY            SKY/WX      TMP DP  RH  WIND    PRES   REMARKS
MEACHAM         MOCLDY      54  41  61  CALM    29.96S
6HR MIN TEMP:   39; 6HR MAX TEMP:   54;

#BATTLE MTN DOT N/A         50  44  80  S2      N/A
#HEPPNER 15SE   N/A         56  43  62  SE1     29.85F
#LADD CYN SMT   N/A         60  36  41  N6      N/A
#LONG CREEK HS  N/A         55  42  61  CALM    29.92R
#N POWDER DOT   N/A         60  44  55  NE12    N/A
#PIKES PEAK     N/A         50  42  74  SW16    27.99S
#TOLLGATE       N/A         46  41  83  S3      29.90S
#TROY SCHOOL    N/A         71  48  44  SE6     29.67F
#UKIAH          N/A         57  43  59  S1      29.91F
#WESTON 4E      N/A         54  45  71  S6      29.82S
$$

ORZ505-251910-
JOHN DAY BASIN

CITY            SKY/WX      TMP DP  RH  WIND    PRES   REMARKS
JOHN DAY        MOCLDY      61  32  33  W8      29.96F
#JOHN DAY KJDY  N/A         68  54  61  W6      29.91F
#DAYVILLE SCHOOLN/A         63  33  32  CALM    29.92S
#MITCHELL       N/A         62  43  50  CALM    30.09F
#MONUMENT HS    N/A         62  39  43  SW2     29.95F
#MT. VERNON 5SE N/A         58  32  37  SW1     29.92S
$$

ORZ506-251910-
OCHOCO AND JOHN DAY HIGHLANDS

CITY            SKY/WX      TMP DP  RH  WIND    PRES   REMARKS
#PAULINA SCHOOL N/A         63  33  32  SW2     29.95F
#PINE MTN OBS   N/A         48  33  56  NW3     N/A
#PRAIRIE CITY   N/A         64  42  45  SW1     29.85F
#SENECA         N/A         61  N/A N/A N3      N/A
#SENECA 9NW     N/A         58  33  39  CALM    29.81S
$$

ORZ049-251910-
GRANDE RONDE VALLEY

CITY            SKY/WX      TMP DP  RH  WIND    PRES   REMARKS
LA GRANDE       CLOUDY      63  37  38  NW16    29.91F
#COVE           N/A         61  48  62  CALM    29.94F
#COVE SCHOOL    N/A         62  46  56  CALM    29.91F
#ELGIN 3N       N/A         62  42  48  CALM    29.90F
#ELGIN 1E       N/A         61  46  58  CALM    N/A
#ISLAND CITY 4N N/A         56  50  80  CALM    30.03S
#LADD CYN DOT   N/A         63  42  46  N2      N/A
#LA GRANDE ELEM N/A         60  43  53  NW7     29.95R
#UNION 1S       N/A         61  46  58  N5      29.75S
$$

ORZ050-251910-
WALLOWA COUNTY

CITY            SKY/WX      TMP DP  RH  WIND    PRES   REMARKS
JOSEPH AIRPORT  N/A         57  46  67  N5      29.95S
#ENTERPRISE HS  N/A         59  48  67  N3      29.94F
#IMNAHA SCHOOL  N/A         69  51  53  N6      29.86F
#IMNAHA 10S     N/A         66  51  58  NE3     29.88F
#JOSEPH 3N      N/A         57  45  64  NW6     29.96F
#JOSEPH 3W      N/A         56  47  72  NE1     29.80S
#LOSTINE        N/A         59  47  64  CALM    29.63S
#MT HOWARD 8000 N/A         47  37  68  CALM    30.04R
#PROMISE 1S     N/A         57  43  59  S5      29.96S
#SHEEP RDG 7000 N/A         45  41  86  CALM    29.82S
#WALLOWA SCHOOL N/A         61  46  58  CALM    30.72F



$$



USA.gov is the U.S. government's official web portal to all federal, state and local government web resources and services.